| time (UTC) | temp C | wind direction | speed KPH | gust KPH | rain 1hr cm | rain 24hr cm | rain mn cm | humidity % | barometer mb |
| 20260510043548 | 12 | 351 | 0.0 | 0.0 | 0.13 | 0.13 | 0.13 | 97 | 1009.3 |
| 20260510043045 | 12 | 79 | 3.2 | 3.2 | 0.43 | 0.13 | 0.13 | 97 | 1009.1 |
| 20260510042539 | 12 | 32 | 0.0 | 1.6 | 0.61 | 0.10 | 0.10 | 97 | 1009.4 |
| 20260510042034 | 12 | 349 | 0.0 | 0.0 | 0.30 | 0.05 | 0.05 | 97 | 1009.4 |
| 20260510041531 | 12 | 258 | 0.0 | 1.6 | 0.00 | 0.00 | 0.00 | 97 | 1009.7 |
| 20260510041029 | 12 | 284 | 1.6 | 1.6 | 0.00 | 0.00 | 0.00 | 97 | 1009.1 |
| 20260510040525 | 12 | 327 | 1.6 | 1.6 | 0.18 | 0.00 | 0.00 | 97 | 1009.2 |
| 20260510040021 | 12 | 342 | 0.0 | 1.6 | 0.48 | 2.36 | 2.36 | 97 | 1009.0 |
| 20260510035518 | 12 | 156 | 3.2 | 3.2 | 0.89 | 2.34 | 2.34 | 97 | 1008.8 |
| 20260510035017 | 12 | 2 | 1.6 | 1.6 | 1.98 | 2.31 | 2.31 | 97 | 1009.4 |
| 20260510034516 | 12 | 180 | 4.8 | 4.8 | 1.50 | 2.21 | 2.21 | 97 | 1010.0 |
| 20260510034012 | 12 | 345 | 4.8 | 4.8 | 0.18 | 1.98 | 1.98 | 97 | 1010.3 |
| 20260510033508 | 12 | 349 | 1.6 | 1.6 | 0.00 | 1.96 | 1.96 | 96 | 1009.4 |
| 20260510033007 | 12 | 144 | 1.6 | 3.2 | 0.18 | 1.96 | 1.96 | 96 | 1008.7 |
| 20260510032502 | 12 | 12 | 1.6 | 1.6 | 0.30 | 1.96 | 1.96 | 96 | 1008.3 |
| 20260510031957 | 12 | 14 | 0.0 | 0.0 | 0.13 | 1.93 | 1.93 | 96 | 1008.2 |
| 20260510031453 | 12 | 350 | 0.0 | 0.0 | 0.00 | 1.91 | 1.91 | 96 | 1008.7 |
| 20260510030949 | 12 | 345 | 0.0 | 1.6 | 0.00 | 1.91 | 1.91 | 96 | 1008.5 |
| 20260510030444 | 12 | 35 | 1.6 | 1.6 | 0.00 | 1.91 | 1.91 | 96 | 1008.3 |
| 20260510025942 | 12 | 185 | 4.8 | 4.8 | 0.00 | 1.91 | 1.91 | 96 | 1007.9 |
| 20260510025439 | 12 | 136 | 4.8 | 4.8 | 0.18 | 1.91 | 1.91 | 96 | 1008.1 |
| 20260510024937 | 12 | 195 | 4.8 | 8.0 | 0.48 | 1.91 | 1.91 | 96 | 1008.3 |
| 20260510024433 | 12 | 158 | 6.4 | 8.0 | 0.30 | 1.88 | 1.88 | 96 | 1008.4 |
| 20260510023929 | 12 | 169 | 4.8 | 4.8 | 0.30 | 1.83 | 1.83 | 96 | 1008.4 |
| 20260510023425 | 12 | 180 | 6.4 | 8.0 | 0.30 | 1.83 | 1.83 | 96 | 1008.1 |
| 20260510022923 | 12 | 342 | 0.0 | 1.6 | 0.18 | 1.80 | 1.80 | 96 | 1008.8 |
| 20260510022421 | 12 | 326 | 0.0 | 1.6 | 0.00 | 1.78 | 1.78 | 96 | 1008.8 |
| 20260510021920 | 12 | 108 | 3.2 | 3.2 | 0.00 | 1.78 | 1.78 | 96 | 1008.4 |
| 20260510021419 | 12 | 181 | 3.2 | 3.2 | 0.00 | 1.78 | 1.78 | 96 | 1008.4 |
| 20260510020915 | 12 | 167 | 4.8 | 4.8 | 0.00 | 1.78 | 1.78 | 96 | 1008.4 |
| 20260510020410 | 12 | 338 | 0.0 | 0.0 | 0.13 | 1.78 | 1.78 | 96 | 1008.6 |
| 20260510015906 | 12 | 358 | 0.0 | 0.0 | 0.13 | 1.78 | 1.78 | 96 | 1008.3 |
| 20260510015402 | 12 | 130 | 4.8 | 4.8 | 0.00 | 1.75 | 1.75 | 96 | 1008.3 |
| 20260510014857 | 12 | 329 | 1.6 | 1.6 | 0.00 | 1.75 | 1.75 | 96 | 1008.8 |
| 20260510014355 | 12 | 312 | 1.6 | 1.6 | 0.18 | 1.75 | 1.75 | 96 | 1008.6 |
| 20260510013851 | 12 | 117 | 1.6 | 3.2 | 0.18 | 1.75 | 1.75 | 95 | 1008.3 |
| 20260510013347 | 12 | 202 | 1.6 | 3.2 | 0.43 | 1.73 | 1.73 | 95 | 1008.5 |
| 20260510012841 | 12 | 322 | 0.0 | 0.0 | 0.79 | 1.73 | 1.73 | 95 | 1008.3 |
| 20260510012336 | 12 | 300 | 4.8 | 4.8 | 0.48 | 1.65 | 1.65 | 95 | 1008.8 |
| 20260510011831 | 12 | 339 | 1.6 | 1.6 | 0.43 | 1.60 | 1.60 | 95 | 1008.9 |
| 20260510011326 | 12 | 342 | 0.0 | 1.6 | 0.48 | 1.57 | 1.57 | 94 | 1008.6 |
| 20260510010823 | 12 | 338 | 4.8 | 4.8 | 0.61 | 1.52 | 1.52 | 94 | 1008.5 |
| 20260510010321 | 12 | 11 | 3.2 | 4.8 | 0.89 | 1.50 | 1.50 | 93 | 1008.7 |
| 20260510005817 | 12 | 296 | 3.2 | 4.8 | 1.19 | 1.45 | 1.45 | 93 | 1008.5 |
| 20260510005313 | 12 | 356 | 3.2 | 3.2 | 3.07 | 1.35 | 1.35 | 92 | 1008.5 |
| 20260510004811 | 13 | 264 | 8.0 | 9.7 | 2.39 | 1.22 | 1.22 | 89 | 1008.5 |
| 20260510004308 | 15 | 332 | 8.0 | 11.3 | 0.30 | 0.86 | 0.86 | 81 | 1008.3 |
| 20260510003806 | 17 | 254 | 8.0 | 12.9 | 0.00 | 0.81 | 0.81 | 67 | 1008.4 |
| 20260510003303 | 18 | 1 | 3.2 | 3.2 | 0.00 | 0.81 | 0.81 | 61 | 1007.0 |
| 20260510002801 | 18 | 218 | 0.0 | 0.0 | 0.00 | 0.81 | 0.81 | 60 | 1006.5 |
| 20260510002259 | 18 | 175 | 4.8 | 4.8 | 0.00 | 0.81 | 0.81 | 59 | 1006.4 |
| 20260510001755 | 18 | 201 | 1.6 | 3.2 | 0.00 | 0.81 | 0.81 | 58 | 1006.2 |
| 20260510001253 | 18 | 154 | 8.0 | 9.7 | 0.00 | 0.81 | 0.81 | 58 | 1006.2 |
| 20260510000749 | 18 | 157 | 3.2 | 3.2 | 0.00 | 0.81 | 0.81 | 58 | 1006.2 |
| 20260510000248 | 18 | 180 | 4.8 | 4.8 | 0.00 | 0.81 | 0.81 | 57 | 1006.0 |
| 20260509235744 | 18 | 122 | 3.2 | 3.2 | 0.00 | 0.81 | 0.81 | 57 | 1006.0 |
| 20260509235240 | 18 | 230 | 6.4 | 9.7 | 0.00 | 0.81 | 0.81 | 57 | 1005.7 |
| 20260509234736 | 18 | 195 | 4.8 | 8.0 | 0.00 | 0.81 | 0.81 | 57 | 1005.8 |
| 20260509234233 | 18 | 167 | 4.8 | 4.8 | 0.00 | 0.81 | 0.81 | 57 | 1005.8 |
| 20260509233731 | 18 | 87 | 3.2 | 3.2 | 0.00 | 0.81 | 0.81 | 57 | 1005.6 |
| 20260509233228 | 18 | 181 | 3.2 | 3.2 | 0.00 | 0.81 | 0.81 | 57 | 1005.8 |
| 20260509232724 | 18 | 168 | 4.8 | 8.0 | 0.00 | 0.81 | 0.81 | 57 | 1005.8 |
| 20260509232222 | 19 | 173 | 1.6 | 3.2 | 0.00 | 0.81 | 0.81 | 56 | 1005.6 |
| 20260509231718 | 19 | 232 | 3.2 | 4.8 | 0.00 | 0.81 | 0.81 | 56 | 1005.5 |
| 20260509231215 | 19 | 161 | 4.8 | 8.0 | 0.00 | 0.81 | 0.81 | 55 | 1005.5 |
| 20260509230713 | 19 | 143 | 4.8 | 8.0 | 0.00 | 0.81 | 0.81 | 56 | 1005.2 |
| 20260509230209 | 20 | 191 | 4.8 | 4.8 | 0.00 | 0.81 | 0.81 | 55 | 1005.3 |
| 20260509225705 | 20 | 222 | 4.8 | 8.0 | 0.00 | 0.81 | 0.81 | 53 | 1005.5 |
| 20260509225200 | 20 | 274 | 3.2 | 4.8 | 0.00 | 0.81 | 0.81 | 54 | 1005.4 |
| 20260509224657 | 20 | 184 | 8.0 | 9.7 | 0.00 | 0.81 | 0.81 | 53 | 1005.5 |
| 20260509224154 | 20 | 283 | 3.2 | 3.2 | 0.00 | 0.81 | 0.81 | 52 | 1005.5 |
| 20260509223651 | 20 | 267 | 4.8 | 4.8 | 0.00 | 0.81 | 0.81 | 52 | 1005.5 |
| 20260509223148 | 20 | 305 | 6.4 | 9.7 | 0.00 | 0.81 | 0.81 | 52 | 1005.7 |
| 20260509222645 | 20 | 239 | 14.5 | 17.7 | 0.00 | 0.81 | 0.81 | 52 | 1005.5 |
| 20260509222140 | 20 | 239 | 4.8 | 8.0 | 0.00 | 0.81 | 0.81 | 52 | 1005.7 |
| 20260509221636 | 20 | 248 | 0.0 | 1.6 | 0.00 | 0.81 | 0.81 | 53 | 1005.4 |
| 20260509221132 | 20 | 264 | 4.8 | 8.0 | 0.00 | 0.81 | 0.81 | 53 | 1005.2 |
| 20260509220628 | 20 | 186 | 6.4 | 9.7 | 0.00 | 0.81 | 0.81 | 52 | 1005.6 |
| 20260509220124 | 20 | 193 | 8.0 | 9.7 | 0.00 | 0.81 | 0.81 | 52 | 1005.5 |
| 20260509215620 | 20 | 164 | 8.0 | 9.7 | 0.00 | 0.81 | 0.81 | 51 | 1005.6 |
| 20260509215117 | 20 | 170 | 8.0 | 9.7 | 0.00 | 0.81 | 0.81 | 52 | 1005.6 |
| 20260509214614 | 20 | 215 | 8.0 | 11.3 | 0.00 | 0.81 | 0.81 | 51 | 1005.5 |
| 20260509214111 | 20 | 288 | 8.0 | 11.3 | 0.00 | 0.81 | 0.81 | 52 | 1005.7 |
| 20260509213607 | 20 | 301 | 6.4 | 8.0 | 0.00 | 0.81 | 0.81 | 52 | 1005.7 |
| 20260509213104 | 20 | 336 | 4.8 | 8.0 | 0.00 | 0.81 | 0.81 | 53 | 1005.8 |
| 20260509212601 | 20 | 278 | 1.6 | 1.6 | 0.00 | 0.81 | 0.81 | 54 | 1005.6 |
| 20260509212058 | 20 | 201 | 6.4 | 9.7 | 0.00 | 0.81 | 0.81 | 53 | 1005.9 |
| 20260509211554 | 20 | 183 | 8.0 | 11.3 | 0.00 | 0.81 | 0.81 | 53 | 1005.7 |
| 20260509211050 | 20 | 229 | 4.8 | 4.8 | 0.00 | 0.81 | 0.81 | 53 | 1005.7 |
| 20260509210548 | 20 | 180 | 8.0 | 9.7 | 0.00 | 0.81 | 0.81 | 54 | 1005.7 |
| 20260509210044 | 20 | 183 | 12.9 | 17.7 | 0.00 | 0.81 | 0.81 | 53 | 1005.7 |
| 20260509205538 | 20 | 233 | 6.4 | 8.0 | 0.00 | 0.81 | 0.81 | 54 | 1005.7 |
| 20260509205033 | 20 | 319 | 6.4 | 9.7 | 0.00 | 0.81 | 0.81 | 54 | 1005.9 |
| 20260509204530 | 20 | 190 | 6.4 | 8.0 | 0.00 | 0.81 | 0.81 | 54 | 1006.1 |
| 20260509204026 | 19 | 228 | 8.0 | 9.7 | 0.00 | 0.81 | 0.81 | 56 | 1006.1 |
| 20260509203522 | 19 | 112 | 6.4 | 9.7 | 0.00 | 0.81 | 0.81 | 56 | 1006.3 |
| 20260509203021 | 20 | 166 | 8.0 | 11.3 | 0.00 | 0.81 | 0.81 | 55 | 1006.3 |
| 20260509202515 | 20 | 276 | 3.2 | 3.2 | 0.00 | 0.81 | 0.81 | 56 | 1006.1 |
| 20260509202011 | 20 | 231 | 4.8 | 8.0 | 0.00 | 0.81 | 0.81 | 57 | 1006.1 |
| 20260509201506 | 20 | 260 | 1.6 | 3.2 | 0.00 | 0.81 | 0.81 | 58 | 1006.4 |
| 20260509201004 | 20 | 185 | 12.9 | 14.5 | 0.00 | 0.81 | 0.81 | 57 | 1006.5 |
| 20260509200458 | 20 | 161 | 6.4 | 9.7 | 0.00 | 0.81 | 0.81 | 56 | 1006.7 |
| 20260509195955 | 20 | 240 | 4.8 | 8.0 | 0.00 | 0.81 | 0.81 | 58 | 1006.8 |
| 20260509195450 | 20 | 290 | 8.0 | 11.3 | 0.00 | 0.81 | 0.81 | 57 | 1006.8 |
| 20260509194950 | 20 | 131 | 8.0 | 9.7 | 0.00 | 0.81 | 0.81 | 57 | 1006.6 |
| 20260509194446 | 20 | 263 | 1.6 | 3.2 | 0.00 | 0.81 | 0.81 | 60 | 1006.8 |
| 20260509193943 | 20 | 208 | 4.8 | 4.8 | 0.00 | 0.81 | 0.81 | 60 | 1006.7 |
| 20260509193443 | 18 | 230 | 3.2 | 3.2 | 0.00 | 0.81 | 0.81 | 62 | 1007.0 |
| 20260509192939 | 18 | 153 | 4.8 | 4.8 | 0.00 | 0.81 | 0.81 | 62 | 1007.0 |
| 20260509192436 | 18 | 299 | 1.6 | 1.6 | 0.00 | 0.81 | 0.81 | 65 | 1007.4 |
| 20260509191931 | 17 | 243 | 1.6 | 3.2 | 0.00 | 0.81 | 0.81 | 66 | 1007.4 |
| 20260509191426 | 18 | 258 | 4.8 | 8.0 | 0.00 | 0.81 | 0.81 | 64 | 1007.3 |
| 20260509190923 | 17 | 244 | 3.2 | 3.2 | 0.00 | 0.81 | 0.81 | 65 | 1007.1 |
| 20260509190420 | 18 | 325 | 3.2 | 3.2 | 0.00 | 0.81 | 0.81 | 64 | 1007.1 |
| 20260509185918 | 17 | 190 | 1.6 | 4.8 | 0.00 | 0.81 | 0.81 | 66 | 1007.4 |
| 20260509185415 | 17 | 269 | 4.8 | 4.8 | 0.00 | 0.81 | 0.81 | 68 | 1007.5 |
| 20260509184911 | 17 | 189 | 3.2 | 3.2 | 0.00 | 0.81 | 0.81 | 67 | 1007.5 |
| 20260509184409 | 17 | 323 | 3.2 | 3.2 | 0.00 | 0.81 | 0.81 | 66 | 1007.6 |
| 20260509183905 | 17 | 207 | 4.8 | 8.0 | 0.00 | 0.81 | 0.81 | 67 | 1007.6 |
| 20260509183359 | 17 | 205 | 4.8 | 9.7 | 0.00 | 0.81 | 0.81 | 69 | 1007.6 |
| 20260509182856 | 17 | 246 | 1.6 | 4.8 | 0.00 | 0.81 | 0.81 | 68 | 1007.8 |
| 20260509182353 | 17 | 308 | 3.2 | 3.2 | 0.00 | 0.81 | 0.81 | 68 | 1007.5 |
| 20260509181851 | 17 | 200 | 4.8 | 4.8 | 0.00 | 0.81 | 0.81 | 68 | 1007.6 |
| 20260509181348 | 17 | 231 | 6.4 | 9.7 | 0.00 | 0.81 | 0.81 | 70 | 1007.3 |
| 20260509180845 | 17 | 68 | 6.4 | 11.3 | 0.18 | 0.81 | 0.81 | 71 | 1007.5 |
| 20260509180340 | 16 | 175 | 9.7 | 11.3 | 0.18 | 0.81 | 0.81 | 71 | 1007.5 |
| 20260509175838 | 17 | 151 | 8.0 | 12.9 | 0.00 | 0.79 | 0.79 | 70 | 1007.7 |
| 20260509175334 | 16 | 200 | 8.0 | 11.3 | 0.00 | 0.79 | 0.79 | 73 | 1007.6 |
| 20260509174830 | 16 | 341 | 4.8 | 8.0 | 0.00 | 0.79 | 0.79 | 72 | 1007.7 |
| 20260509174326 | 16 | 261 | 4.8 | 8.0 | 0.00 | 0.79 | 0.79 | 73 | 1007.7 |
| 20260509173822 | 16 | 252 | 4.8 | 4.8 | 0.00 | 0.79 | 0.79 | 72 | 1007.6 |
| 20260509173317 | 16 | 203 | 8.0 | 9.7 | 0.00 | 0.79 | 0.79 | 73 | 1007.8 |
| 20260509172814 | 16 | 286 | 3.2 | 3.2 | 0.00 | 0.79 | 0.79 | 75 | 1007.8 |
| 20260509172311 | 16 | 308 | 3.2 | 4.8 | 0.00 | 0.79 | 0.79 | 75 | 1007.9 |
| 20260509171806 | 16 | 271 | 6.4 | 8.0 | 0.00 | 0.79 | 0.79 | 77 | 1007.7 |
| 20260509171302 | 15 | 272 | 3.2 | 3.2 | 0.00 | 0.79 | 0.79 | 78 | 1007.7 |
| 20260509170758 | 15 | 194 | 6.4 | 9.7 | 0.00 | 0.79 | 0.79 | 78 | 1007.9 |
| 20260509170249 | 15 | 353 | 4.8 | 4.8 | 0.00 | 0.79 | 0.79 | 78 | 1007.9 |
| 20260509165748 | 15 | 269 | 4.8 | 4.8 | 0.00 | 0.79 | 0.79 | 78 | 1007.9 |
| 20260509165244 | 15 | 138 | 8.0 | 11.3 | 0.00 | 0.79 | 0.79 | 78 | 1008.0 |
| 20260509164740 | 15 | 134 | 6.4 | 11.3 | 0.00 | 0.79 | 0.79 | 79 | 1007.9 |
| 20260509164236 | 15 | 311 | 4.8 | 8.0 | 0.00 | 0.79 | 0.79 | 82 | 1007.9 |
| 20260509163733 | 14 | 276 | 3.2 | 3.2 | 0.00 | 0.79 | 0.79 | 83 | 1008.0 |
| 20260509163229 | 14 | 273 | 3.2 | 4.8 | 0.00 | 0.79 | 0.79 | 83 | 1008.0 |
| 20260509162728 | 15 | 314 | 3.2 | 3.2 | 0.00 | 0.79 | 0.79 | 83 | 1007.9 |
| 20260509162222 | 15 | 225 | 8.0 | 9.7 | 0.00 | 0.79 | 0.79 | 83 | 1007.8 |
| 20260509161718 | 15 | 336 | 4.8 | 4.8 | 0.00 | 0.79 | 0.79 | 83 | 1007.8 |
| 20260509161215 | 14 | 298 | 1.6 | 3.2 | 0.00 | 0.79 | 0.79 | 85 | 1007.9 |
| 20260509160709 | 14 | 313 | 0.0 | 1.6 | 0.00 | 0.79 | 0.79 | 86 | 1007.9 |
| 20260509160206 | 14 | 57 | 6.4 | 8.0 | 0.00 | 0.79 | 0.79 | 86 | 1007.7 |
| 20260509155701 | 13 | 344 | 1.6 | 3.2 | 0.00 | 0.79 | 0.79 | 88 | 1007.7 |
| 20260509155158 | 13 | 298 | 3.2 | 3.2 | 0.00 | 0.79 | 0.79 | 89 | 1007.8 |
| 20260509154654 | 13 | 354 | 1.6 | 1.6 | 0.00 | 0.79 | 0.79 | 89 | 1007.8 |
| 20260509154151 | 13 | 336 | 1.6 | 1.6 | 0.00 | 0.79 | 0.79 | 89 | 1007.7 |
| 20260509153648 | 13 | 298 | 4.8 | 8.0 | 0.00 | 0.79 | 0.79 | 89 | 1007.7 |
| 20260509153145 | 12 | 313 | 1.6 | 1.6 | 0.00 | 0.79 | 0.79 | 90 | 1007.6 |
| 20260509152640 | 12 | 307 | 1.6 | 1.6 | 0.00 | 0.79 | 0.79 | 90 | 1007.5 |
| 20260509152138 | 12 | 284 | 1.6 | 1.6 | 0.00 | 0.79 | 0.79 | 90 | 1007.5 |
| 20260509151634 | 12 | 336 | 3.2 | 4.8 | 0.00 | 0.79 | 0.79 | 91 | 1007.7 |
| 20260509151132 | 12 | 205 | 8.0 | 11.3 | 0.00 | 0.79 | 0.79 | 92 | 1007.5 |
| 20260509150630 | 12 | 358 | 0.0 | 0.0 | 0.00 | 0.79 | 0.79 | 93 | 1007.8 |
| 20260509150128 | 12 | 214 | 4.8 | 4.8 | 0.00 | 0.79 | 0.79 | 94 | 1007.8 |
| 20260509145624 | 12 | 207 | 3.2 | 8.0 | 0.00 | 0.79 | 0.79 | 94 | 1007.8 |
| 20260509145119 | 12 | 203 | 1.6 | 3.2 | 0.00 | 0.79 | 0.79 | 96 | 1007.6 |
| 20260509144616 | 11 | 268 | 3.2 | 3.2 | 0.00 | 0.79 | 0.79 | 96 | 1007.7 |
| 20260509144113 | 11 | 338 | 0.0 | 1.6 | 0.00 | 0.79 | 0.79 | 96 | 1007.9 |
| 20260509143610 | 11 | 343 | 0.0 | 0.0 | 0.00 | 0.79 | 0.79 | 97 | 1007.7 |
| 20260509143108 | 11 | 306 | 3.2 | 3.2 | 0.00 | 0.79 | 0.79 | 96 | 1007.9 |
| 20260509142602 | 11 | 197 | 3.2 | 4.8 | 0.00 | 0.79 | 0.79 | 97 | 1007.9 |
| 20260509142059 | 11 | 216 | 3.2 | 3.2 | 0.00 | 0.79 | 0.79 | 97 | 1007.7 |
| 20260509141555 | 11 | 130 | 1.6 | 3.2 | 0.00 | 0.79 | 0.79 | 97 | 1007.8 |
| 20260509141052 | 11 | 222 | 1.6 | 1.6 | 0.00 | 0.79 | 0.79 | 97 | 1008.0 |
| 20260509140549 | 11 | 214 | 3.2 | 3.2 | 0.00 | 0.79 | 0.79 | 97 | 1007.8 |
| 20260509140047 | 11 | 356 | 1.6 | 3.2 | 0.00 | 0.79 | 0.79 | 97 | 1007.9 |
| 20260509135543 | 11 | 5 | 1.6 | 1.6 | 0.00 | 0.79 | 0.79 | 97 | 1008.0 |
| 20260509135041 | 11 | 358 | 1.6 | 3.2 | 0.00 | 0.79 | 0.79 | 97 | 1007.9 |
| 20260509134538 | 11 | 270 | 3.2 | 3.2 | 0.00 | 0.79 | 0.79 | 96 | 1008.1 |
| 20260509134035 | 11 | 290 | 1.6 | 1.6 | 0.00 | 0.79 | 0.79 | 97 | 1007.7 |
| 20260509133532 | 11 | 335 | 0.0 | 1.6 | 0.00 | 0.79 | 0.79 | 97 | 1007.8 |
| 20260509133030 | 10 | 237 | 1.6 | 3.2 | 0.00 | 0.79 | 0.79 | 96 | 1008.0 |
| 20260509132528 | 10 | 50 | 3.2 | 4.8 | 0.00 | 0.79 | 0.79 | 96 | 1008.1 |
| 20260509132026 | 10 | 239 | 1.6 | 1.6 | 0.00 | 0.79 | 0.79 | 96 | 1008.0 |
| 20260509131516 | 10 | 17 | 1.6 | 3.2 | 0.00 | 0.79 | 0.79 | 96 | 1008.0 |
| 20260509131013 | 10 | 98 | 3.2 | 4.8 | 0.00 | 0.79 | 0.79 | 96 | 1008.0 |
| 20260509130508 | 10 | 345 | 0.0 | 1.6 | 0.00 | 0.79 | 0.79 | 96 | 1008.2 |
| 20260509130006 | 10 | 322 | 1.6 | 3.2 | 0.00 | 0.79 | 0.79 | 96 | 1008.1 |
| 20260509125502 | 10 | 337 | 1.6 | 3.2 | 0.00 | 0.79 | 0.79 | 96 | 1008.0 |
| 20260509124958 | 10 | 300 | 1.6 | 1.6 | 0.00 | 0.79 | 0.79 | 96 | 1007.8 |
| 20260509124455 | 10 | 346 | 0.0 | 0.0 | 0.00 | 0.79 | 0.79 | 96 | 1007.9 |
| 20260509123952 | 10 | 342 | 4.8 | 8.0 | 0.00 | 0.79 | 0.79 | 96 | 1007.8 |
| 20260509123450 | 10 | 256 | 1.6 | 1.6 | 0.00 | 0.79 | 0.79 | 97 | 1008.0 |
| 20260509122945 | 10 | 348 | 0.0 | 1.6 | 0.00 | 0.79 | 0.79 | 97 | 1008.0 |
| 20260509122443 | 10 | 308 | 1.6 | 1.6 | 0.00 | 0.79 | 0.79 | 97 | 1008.3 |
| 20260509121939 | 10 | 169 | 3.2 | 3.2 | 0.00 | 0.79 | 0.79 | 97 | 1008.1 |
| 20260509121436 | 10 | 335 | 1.6 | 3.2 | 0.00 | 0.79 | 0.79 | 97 | 1008.1 |
| 20260509120934 | 10 | 258 | 1.6 | 1.6 | 0.00 | 0.79 | 0.79 | 97 | 1008.1 |
| 20260509120432 | 10 | 181 | 3.2 | 3.2 | 0.00 | 0.79 | 0.79 | 97 | 1008.1 |
| 20260509115930 | 10 | 74 | 0.0 | 1.6 | 0.00 | 0.79 | 0.79 | 97 | 1008.1 |
| 20260509115427 | 10 | 170 | 3.2 | 3.2 | 0.00 | 0.79 | 0.79 | 97 | 1008.3 |
| 20260509114924 | 10 | 341 | 1.6 | 3.2 | 0.00 | 0.79 | 0.79 | 97 | 1008.1 |
| 20260509114423 | 10 | 270 | 0.0 | 1.6 | 0.00 | 0.79 | 0.79 | 97 | 1008.2 |
| 20260509113922 | 10 | 160 | 3.2 | 3.2 | 0.00 | 0.79 | 0.79 | 97 | 1008.1 |
| 20260509113419 | 10 | 248 | 1.6 | 1.6 | 0.00 | 0.79 | 0.79 | 97 | 1007.9 |
| 20260509112916 | 10 | 354 | 0.0 | 0.0 | 0.00 | 0.79 | 0.79 | 96 | 1008.1 |
| 20260509112413 | 10 | 256 | 1.6 | 1.6 | 0.00 | 0.79 | 0.79 | 97 | 1007.9 |
| 20260509111910 | 10 | 95 | 1.6 | 1.6 | 0.00 | 0.79 | 0.79 | 97 | 1007.9 |
| 20260509111407 | 10 | 197 | 1.6 | 1.6 | 0.00 | 0.79 | 0.79 | 97 | 1007.9 |
| 20260509110904 | 10 | 152 | 3.2 | 4.8 | 0.00 | 0.79 | 0.79 | 97 | 1007.8 |
| 20260509110400 | 10 | 137 | 4.8 | 4.8 | 0.00 | 0.79 | 0.79 | 97 | 1007.9 |
| 20260509105859 | 10 | 287 | 1.6 | 1.6 | 0.00 | 0.79 | 0.79 | 97 | 1007.9 |
| 20260509105356 | 10 | 160 | 4.8 | 4.8 | 0.00 | 0.79 | 0.79 | 97 | 1007.8 |
| 20260509104853 | 10 | 195 | 4.8 | 8.0 | 0.00 | 0.79 | 0.79 | 97 | 1007.9 |
| 20260509104349 | 10 | 155 | 3.2 | 3.2 | 0.13 | 0.79 | 0.79 | 97 | 1008.0 |
| 20260509103847 | 10 | 150 | 4.8 | 8.0 | 0.13 | 0.79 | 0.79 | 97 | 1008.1 |
| 20260509103344 | 10 | 220 | 3.2 | 3.2 | 0.00 | 0.76 | 0.76 | 97 | 1007.9 |
| 20260509102843 | 10 | 156 | 3.2 | 3.2 | 0.00 | 0.76 | 0.76 | 97 | 1007.9 |
| 20260509102340 | 9 | 183 | 3.2 | 3.2 | 0.00 | 0.76 | 0.76 | 97 | 1007.8 |
| 20260509101835 | 9 | 12 | 0.0 | 0.0 | 0.00 | 0.76 | 0.76 | 97 | 1008.0 |
| 20260509101326 | 9 | 9 | 0.0 | 1.6 | 0.00 | 0.76 | 0.76 | 97 | 1007.9 |
| 20260509100824 | 9 | 153 | 1.6 | 3.2 | 0.00 | 0.76 | 0.76 | 97 | 1007.9 |
| 20260509100321 | 9 | 48 | 1.6 | 1.6 | 0.00 | 0.76 | 0.76 | 97 | 1008.0 |
| 20260509095817 | 9 | 132 | 4.8 | 4.8 | 0.00 | 0.76 | 0.76 | 97 | 1008.0 |
| 20260509095315 | 9 | 55 | 1.6 | 1.6 | 0.00 | 0.76 | 0.76 | 97 | 1008.2 |
| 20260509094812 | 9 | 31 | 1.6 | 1.6 | 0.18 | 0.76 | 0.76 | 97 | 1008.1 |
| 20260509094309 | 9 | 148 | 1.6 | 3.2 | 0.18 | 0.76 | 0.76 | 97 | 1008.1 |
| 20260509093806 | 9 | 147 | 1.6 | 3.2 | 0.30 | 0.74 | 0.74 | 97 | 1008.1 |
| 20260509093303 | 9 | 124 | 3.2 | 3.2 | 0.48 | 0.74 | 0.74 | 97 | 1008.2 |
| 20260509092802 | 9 | 158 | 3.2 | 4.8 | 0.48 | 0.71 | 0.71 | 97 | 1008.3 |
| 20260509092259 | 9 | 143 | 3.2 | 3.2 | 0.30 | 0.66 | 0.66 | 97 | 1008.7 |
| 20260509091757 | 9 | 172 | 3.2 | 3.2 | 0.30 | 0.64 | 0.64 | 97 | 1008.5 |
| 20260509091254 | 9 | 146 | 1.6 | 3.2 | 0.30 | 0.61 | 0.61 | 97 | 1008.8 |
| 20260509090751 | 9 | 5 | 1.6 | 1.6 | 0.30 | 0.58 | 0.58 | 97 | 1008.5 |
| 20260509090248 | 9 | 19 | 0.0 | 1.6 | 0.13 | 0.56 | 0.56 | 97 | 1008.5 |
| 20260509085745 | 9 | 152 | 3.2 | 3.2 | 0.18 | 0.53 | 0.53 | 97 | 1008.7 |
| 20260509085243 | 9 | 66 | 1.6 | 1.6 | 0.18 | 0.53 | 0.53 | 97 | 1008.6 |
| 20260509084739 | 9 | 105 | 3.2 | 3.2 | 0.13 | 0.51 | 0.51 | 97 | 1008.6 |
| 20260509084236 | 9 | 153 | 3.2 | 3.2 | 0.13 | 0.51 | 0.51 | 97 | 1008.8 |
| 20260509083734 | 9 | 156 | 1.6 | 1.6 | 0.00 | 0.48 | 0.48 | 97 | 1008.7 |
| 20260509083231 | 9 | 68 | 3.2 | 3.2 | 0.18 | 0.48 | 0.48 | 97 | 1008.9 |
| 20260509082727 | 9 | 165 | 4.8 | 4.8 | 0.18 | 0.48 | 0.48 | 97 | 1008.9 |
| 20260509082224 | 9 | 125 | 1.6 | 3.2 | 0.13 | 0.46 | 0.46 | 97 | 1008.9 |
| 20260509081721 | 9 | 169 | 3.2 | 3.2 | 0.13 | 0.46 | 0.46 | 97 | 1008.9 |
| 20260509081218 | 9 | 157 | 3.2 | 4.8 | 0.18 | 0.43 | 0.43 | 97 | 1009.0 |
| 20260509080716 | 9 | 109 | 1.6 | 1.6 | 0.18 | 0.43 | 0.43 | 97 | 1009.1 |
| 20260509080214 | 9 | 142 | 3.2 | 3.2 | 0.18 | 0.43 | 0.43 | 97 | 1009.1 |
| 20260509075712 | 9 | 357 | 0.0 | 0.0 | 0.13 | 0.41 | 0.41 | 97 | 1009.1 |
| 20260509075209 | 9 | 21 | 0.0 | 0.0 | 0.30 | 0.41 | 0.41 | 97 | 1009.1 |
| 20260509074705 | 9 | 124 | 3.2 | 3.2 | 0.18 | 0.38 | 0.38 | 97 | 1009.0 |
| 20260509074202 | 9 | 128 | 4.8 | 8.0 | 0.36 | 0.38 | 0.38 | 96 | 1009.0 |
| 20260509073653 | 9 | 43 | 1.6 | 1.6 | 0.30 | 0.36 | 0.36 | 97 | 1009.0 |
| 20260509073149 | 9 | 142 | 3.2 | 3.2 | 0.13 | 0.33 | 0.33 | 96 | 1008.9 |
| 20260509072647 | 9 | 152 | 3.2 | 3.2 | 0.18 | 0.30 | 0.30 | 96 | 1009.0 |
| 20260509072143 | 8 | 200 | 1.6 | 3.2 | 0.30 | 0.30 | 0.30 | 96 | 1009.0 |
| 20260509071640 | 8 | 170 | 3.2 | 4.8 | 0.30 | 0.28 | 0.28 | 96 | 1008.8 |
| 20260509071137 | 8 | 179 | 3.2 | 4.8 | 0.48 | 0.25 | 0.25 | 96 | 1009.0 |
| 20260509070634 | 8 | 86 | 3.2 | 3.2 | 0.43 | 0.23 | 0.23 | 96 | 1008.9 |
| 20260509070130 | 9 | 146 | 3.2 | 3.2 | 0.30 | 0.20 | 0.20 | 96 | 1008.8 |
| 20260509065625 | 9 | 126 | 3.2 | 3.2 | 0.30 | 0.15 | 0.15 | 96 | 1009.1 |
| 20260509065116 | 9 | 113 | 1.6 | 1.6 | 0.30 | 0.15 | 0.15 | 95 | 1009.1 |
| 20260509064614 | 9 | 2 | 0.0 | 1.6 | 0.30 | 0.13 | 0.13 | 95 | 1009.2 |
| 20260509064112 | 9 | 95 | 1.6 | 1.6 | 0.18 | 0.10 | 0.10 | 95 | 1009.0 |
| 20260509063608 | 9 | 298 | 0.0 | 1.6 | 0.00 | 0.08 | 0.08 | 95 | 1009.2 |
| 20260509063105 | 9 | 96 | 3.2 | 3.2 | 0.00 | 0.08 | 0.08 | 95 | 1009.0 |
| 20260509062602 | 9 | 130 | 3.2 | 3.2 | 0.00 | 0.08 | 0.08 | 95 | 1009.2 |
| 20260509062059 | 9 | 117 | 3.2 | 3.2 | 0.00 | 0.08 | 0.08 | 95 | 1009.0 |
| 20260509061556 | 8 | 101 | 3.2 | 3.2 | 0.00 | 0.08 | 0.08 | 95 | 1009.3 |
| 20260509061053 | 8 | 127 | 3.2 | 3.2 | 0.00 | 0.08 | 0.08 | 96 | 1009.3 |
| 20260509060551 | 9 | 100 | 3.2 | 3.2 | 0.00 | 0.08 | 0.08 | 96 | 1009.4 |
| 20260509060046 | 8 | 103 | 3.2 | 3.2 | 0.00 | 0.08 | 0.08 | 96 | 1009.3 |
| 20260509055542 | 9 | 101 | 3.2 | 3.2 | 0.00 | 0.08 | 0.08 | 96 | 1009.4 |
| 20260509055038 | 9 | 90 | 1.6 | 1.6 | 0.00 | 0.08 | 0.08 | 96 | 1009.5 |
| 20260509054535 | 9 | 77 | 1.6 | 1.6 | 0.00 | 0.08 | 0.08 | 96 | 1009.5 |
| 20260509054033 | 9 | 143 | 4.8 | 4.8 | 0.13 | 0.08 | 0.08 | 95 | 1009.5 |
| 20260509053532 | 9 | 115 | 4.8 | 4.8 | 0.13 | 0.08 | 0.08 | 95 | 1009.6 |
| 20260509053028 | 9 | 55 | 3.2 | 3.2 | 0.00 | 0.05 | 0.05 | 95 | 1009.7 |
| 20260509052526 | 9 | 141 | 4.8 | 4.8 | 0.00 | 0.05 | 0.05 | 95 | 1009.8 |
| 20260509052024 | 9 | 119 | 3.2 | 3.2 | 0.00 | 0.05 | 0.05 | 95 | 1009.9 |
| 20260509051521 | 9 | 57 | 1.6 | 1.6 | 0.00 | 0.05 | 0.05 | 95 | 1010.0 |
| 20260509051018 | 9 | 35 | 1.6 | 1.6 | 0.00 | 0.05 | 0.05 | 95 | 1010.0 |
| 20260509050515 | 9 | 156 | 3.2 | 4.8 | 0.00 | 0.05 | 0.05 | 95 | 1009.9 |
| 20260509050011 | 9 | 16 | 0.0 | 0.0 | 0.18 | 0.05 | 0.05 | 95 | 1010.1 |
| 20260509045508 | 9 | 78 | 4.8 | 4.8 | 0.18 | 0.05 | 0.05 | 95 | 1010.0 |
| 20260509045005 | 9 | 122 | 3.2 | 4.8 | 0.00 | 0.03 | 0.03 | 95 | 1010.3 |
| 20260509044503 | 9 | 130 | 3.2 | 3.2 | 0.00 | 0.03 | 0.03 | 95 | 1010.0 |
| 20260509044000 | 9 | 76 | 3.2 | 3.2 | 0.00 | 0.03 | 0.03 | 95 | 1010.3 |